Location: Gro�wechsungen
(51.4926°N, 10.6901°E)
Time: 13:19:12
(UTC+00:00)

Cosmos 2082 Rocket - Pass Details

Date: 24 January 2021
Orbit: 832 x 854 km, 71.0° (Epoch: 04 March)

Event Time Altitude Azimuth Distance (km) Brightness Sun altitude
Rises 18:33:53 0° 329° (NNW) 3,438 5.8 -24.7°
Reaches altitude 10° 18:36:21 10° 331° (NNW) 2,497 5.0 -25.1°
Maximum altitude 18:42:07 79° 58° (ENE) 876 2.1 -26.0°
Enters shadow 18:42:33 73° 107° (ESE) 893 2.0 -26.1°
